Terminal Aerodrome Forecast
Issued by NWS

Home | Current Version | Previous Version | Text Only | Print | Product List | Glossary On
Versions: 1 2 3 4 5 6 7 8 9 10 11 12 13 14 15 16 17 18 19 20 21
000
FTUS41 KGYX 052320
TAFRKD
TAF
KRKD 052320Z 0600/0624 03009G14KT P6SM -RA BKN015 BKN021 OVC040
     FM060100 03012G20KT 5SM -RA OVC007
     FM060900 36006KT 5SM -DZ BR OVC015
     FM061400 35009KT P6SM BKN035
      AMD LTD TO CLD VIS AND WIND=

USA.gov is the U.S. government's official web portal to all federal, state and local government web resources and services.